Home > Weather > Valletta > Past weeks

Flag for Malta Past Weather in Valletta, Malta — Yesterday and Last 2 Weeks

Now
77 °F

Sunny.


Feels Like: 79 °F
Forecast: 70 / 86 °F
Wind: 17 mph from Northwest

Location: Luqa

Current Time: Jun 28, 2016 at 8:56:38 PM

Latest Report: Jun 28, 2016 at 7:15 PM


Visibility: 10 mi

Pressure: 29.95 "Hg

Humidity: 69%

Dew Point: 66 °F

Location of VallettaLocation

Past Weather in Valletta — Graph

°F

Valletta Temperature Yesterday

Maximum temperature yesterday: 97 °F (at 3:45 PM)
Minimum temperature yesterday: 72 °F (at 4:15 AM)
Average temperature yesterday: 83 °F

High & Low Weather Summary for the Past Weeks

 TemperatureHumidityPressure
High97 °F (Jun 27, 3:45 PM)100% (Jun 18, 11:45 PM)30.12 "Hg (Jun 18, 11:45 PM)
Low64 °F (Jun 21, 5:45 AM)13% (Jun 27, 4:15 PM)29.71 "Hg (Jun 13, 7:15 PM)
Average77 °F61%29.94 "Hg
* Reported Jun 13 7:15 PM — Jun 28 7:15 PM, Valletta, Weather by CustomWeather, © 2016

Note: Actual official high and low records may vary slightly from our data, if they occured in-between our weather recording intervals... More about our weather records

Advertising

Valletta Weather History for the Previous 24 Hours

Scroll right to see more
 ConditionsComfort  
Time TempWeatherWind HumidityBarometerVisibility
7:15 PM
Tue, Jun 28
77 °FSunny.17 mph69%29.95 "Hg10 mi
6:45 PM77 °FSunny.18 mph69%29.95 "Hg10 mi
6:15 PM77 °FSunny.22 mph69%29.95 "Hg10 mi
5:45 PM79 °FPassing clouds.21 mph65%29.95 "HgN/A
5:15 PM79 °FPassing clouds.22 mph65%29.95 "HgN/A
4:45 PM79 °FSunny.20 mph65%29.95 "Hg10 mi
4:15 PM79 °FSunny.18 mph65%29.98 "Hg10 mi
3:45 PM79 °FSunny.17 mph65%29.98 "Hg10 mi
3:15 PM81 °FSunny.18 mph58%29.98 "Hg10 mi
2:45 PM81 °FSunny.18 mph54%29.98 "Hg10 mi
2:15 PM82 °FSunny.22 mph48%29.98 "Hg10 mi
1:45 PM81 °FSunny.21 mph48%30.01 "Hg10 mi
1:15 PM81 °FSunny.22 mph48%30.01 "Hg10 mi
12:45 PM81 °FSunny.20 mph48%30.01 "Hg10 mi
12:15 PM81 °FPassing clouds.17 mph51%30.01 "HgN/A
11:45 AM81 °FSunny.16 mph54%30.01 "Hg10 mi
11:15 AM82 °FSunny.18 mph45%30.01 "Hg10 mi
10:45 AM81 °FSunny.18 mph51%30.01 "Hg10 mi
9:45 AM79 °FSunny.18 mph58%30.01 "Hg10 mi
9:15 AM77 °FSunny.18 mph65%30.01 "Hg10 mi
8:45 AM77 °FSunny.18 mph65%30.01 "Hg10 mi
8:15 AM77 °FSunny.20 mph61%30.01 "Hg10 mi
7:45 AM75 °FSunny.15 mph65%29.98 "Hg10 mi
7:15 AM75 °FSunny.14 mph61%29.98 "Hg10 mi
6:45 AM75 °FClear.14 mph61%29.98 "Hg10 mi
6:15 AM73 °FClear.15 mph65%29.98 "Hg10 mi
5:45 AM73 °FClear.16 mph65%29.98 "Hg10 mi
5:15 AM73 °FClear.13 mph65%29.98 "Hg10 mi
4:45 AM75 °FClear.13 mph57%29.98 "Hg10 mi
4:15 AM75 °FClear.13 mph54%29.98 "Hg10 mi
3:45 AM77 °FClear.14 mph47%29.98 "Hg10 mi
3:15 AM79 °FClear.14 mph42%29.98 "Hg10 mi
2:45 AM77 °FClear.13 mph44%29.98 "Hg10 mi
2:15 AM77 °FClear.16 mph47%30.01 "Hg10 mi
1:15 AM77 °FClear.15 mph47%30.01 "Hg10 mi
12:45 AM79 °FClear.16 mph45%30.01 "Hg10 mi
12:15 AM79 °FClear.17 mph48%30.01 "Hg10 mi
11:45 PM
Mon, Jun 27
77 °FClear.18 mph54%30.04 "Hg10 mi
11:15 PM79 °FClear.18 mph51%30.04 "Hg10 mi
10:45 PM79 °FClear.15 mph51%30.01 "Hg10 mi
10:15 PM79 °FClear.14 mph51%30.01 "Hg10 mi
9:45 PM79 °FClear.14 mph51%30.01 "Hg10 mi
9:15 PM79 °FSunny.10 mph48%30.01 "Hg10 mi
8:45 PM79 °FSunny.8 mph51%30.01 "Hg10 mi
8:15 PM79 °FSunny.10 mph54%30.01 "Hg10 mi
Weather by CustomWeather, © 2016

See weather overviewHow to use our weather pages